Location: Hemaruka
(51.7801°N, 111.0917°W)
Time: 10:31:00
(UTC+00:00)

NOAA 15 - Pass Details

Date: 17 December 2023
Orbit: 797 x 810 km, 98.6° (Epoch: 02 March)

Event Time Altitude Azimuth Distance (km) Brightness Sun altitude
Rises 02:30:56 0° 178° (S) 3,310 7.8 -28.9°
Reaches altitude 10° 02:33:19 10° 183° (S) 2,382 7.1 -29.3°
Maximum altitude 02:38:27 52° 260° (W) 997 5.3 -30.1°
Drops below altitude 10° 02:43:37 10° 337° (NNW) 2,390 7.3 -30.9°
Sets 02:46:01 0° 342° (NNW) 3,324 8.0 -31.3°
